DW2640 Weather Reports


Display with metric or nautical units.
time (UTC)temp
F
wind
direction
speed
MPH
gust
MPH
rain 1hr
in
rain 24hr
in
rain mn
in
humidity
%
barometer
mb
20260902181556 96 223 8.0 16.0 0.00 0.00 0.00 40 1011.2
20260902180056 96 198 10.0 18.0 0.00 0.00 0.00 41 1011.3
20260902174552 96 247 9.0 15.0 0.00 0.00 0.00 42 1011.6
20260902173048 95 238 8.0 15.0 0.00 0.00 0.00 42 1011.7
20260902171546 95 222 9.0 14.0 0.00 0.00 0.00 44 1011.8
20260902170044 93 227 9.0 16.0 0.00 0.00 0.00 46 1012.0
20260902164542 93 240 10.0 15.0 0.00 0.00 0.00 47 1012.2
20260902163044 93 198 8.0 15.0 0.00 0.00 0.00 47 1012.2
20260902161540 91 237 10.0 18.0 0.00 0.00 0.00 50 1012.3
20260902160034 91 215 8.0 14.0 0.00 0.00 0.00 51 1012.4
20260902154531 90 230 9.0 14.0 0.00 0.00 0.00 50 1012.7
20260902153027 89 257 9.0 18.0 0.00 0.00 0.00 52 1012.5
20260902151528 89 235 8.0 14.0 0.00 0.00 0.00 53 1012.7
20260902150022 88 227 8.0 18.0 0.00 0.00 0.00 54 1012.7
20260902144518 87 223 5.0 16.0 0.00 0.00 0.00 56 1012.6
20260902143014 85 219 7.0 15.0 0.00 0.00 0.00 58 1012.8
20260902141511 84 214 4.0 10.0 0.00 0.00 0.00 61 1012.7
20260902140012 83 227 4.0 9.0 0.00 0.00 0.00 62 1012.8
20260902134504 82 153 4.0 9.0 0.00 0.00 0.00 63 1012.7
20260902133107 81 171 3.0 9.0 0.00 0.00 0.00 65 1012.7
20260902131501 79 175 3.0 6.0 0.00 0.00 0.00 67 1012.6
20260902130059 78 171 3.0 5.0 0.00 0.00 0.00 68 1012.4
20260902124558 77 186 1.0 4.0 0.00 0.00 0.00 69 1012.2
20260902123057 76 204 1.0 4.0 0.00 0.00 0.00 70 1012.0
20260902121556 75 221 0.0 4.0 0.00 0.00 0.00 70 1012.0
20260902120054 75 220 0.0 2.0 0.00 0.00 0.00 70 1011.9
20260902114553 75 176 1.0 5.0 0.00 0.00 0.00 70 1011.8
20260902113052 75 184 1.0 4.0 0.00 0.00 0.00 69 1011.7
20260902111551 75 175 1.0 4.0 0.00 0.00 0.00 69 1011.6
20260902110050 75 173 1.0 3.0 0.00 0.00 0.00 69 1011.6
20260902104613 75 196 0.0 2.0 0.00 0.00 0.00 68 1011.5
20260902103046 75 183 0.0 2.0 0.00 0.00 0.00 67 1011.5
20260902101546 75 188 0.0 2.0 0.00 0.00 0.00 67 1011.5
20260902100106 75 215 0.0 4.0 0.00 0.00 0.00 66 1011.4
20260902094544 75 215 0.0 2.0 0.00 0.00 0.00 66 1011.5
20260902093041 76 215 1.0 2.0 0.00 0.00 0.00 65 1011.4
20260902091540 76 215 0.0 2.0 0.00 0.00 0.00 65 1011.3
20260902090038 77 215 0.0 2.0 0.00 0.00 0.00 63 1011.4
20260902084537 77 215 0.0 4.0 0.00 0.00 0.00 63 1011.4
20260902083034 78 203 1.0 2.0 0.00 0.00 0.00 62 1011.3
20260902081534 78 192 1.0 5.0 0.00 0.00 0.00 61 1011.3
20260902080027 79 190 1.0 5.0 0.00 0.00 0.00 60 1011.1
20260902074526 79 175 3.0 6.0 0.00 0.00 0.00 60 1010.9
20260902073021 79 201 3.0 7.0 0.00 0.00 0.00 60 1010.9
20260902071530 79 174 3.0 8.0 0.00 0.00 0.00 59 1011.0
20260902070017 80 161 4.0 6.0 0.00 0.00 0.00 58 1011.0
20260902064515 80 170 3.0 7.0 0.00 0.00 0.00 58 1011.0
20260902063014 80 173 3.0 7.0 0.00 0.00 0.00 58 1011.0
20260902061512 80 178 2.0 6.0 0.00 0.00 0.00 57 1011.0
20260902060011 80 190 3.0 7.0 0.00 0.00 0.00 57 1011.0
20260902054511 80 182 3.0 6.0 0.00 0.00 0.00 57 1010.9
20260902053009 81 180 3.0 5.0 0.00 0.00 0.00 56 1010.9
20260902051509 81 163 3.0 6.0 0.00 0.00 0.00 55 1011.0
20260902050008 82 167 3.0 7.0 0.00 0.00 0.00 54 1011.0
20260902044503 82 150 4.0 8.0 0.00 0.00 0.00 53 1011.1
20260902043003 82 161 3.0 6.0 0.00 0.00 0.00 52 1011.2
20260902041502 82 206 5.0 9.0 0.00 0.00 0.00 51 1011.1
20260902040001 83 182 4.0 8.0 0.00 0.00 0.00 50 1011.1
20260902034501 83 179 3.0 6.0 0.00 0.00 0.00 49 1011.0
20260902033112 83 168 4.0 7.0 0.00 0.00 0.00 48 1011.1
20260902031602 84 135 3.0 5.0 0.00 0.00 0.00 47 1010.8
20260902030059 84 162 1.0 4.0 0.00 0.00 0.00 45 1010.7
20260902024608 85 158 1.0 5.0 0.00 0.00 0.00 44 1010.6
20260902023059 86 155 2.0 6.0 0.00 0.00 0.00 43 1010.4
20260902021558 86 159 3.0 5.0 0.00 0.00 0.00 42 1010.3
20260902020121 87 159 3.0 7.0 0.00 0.00 0.00 41 1010.1
20260902014601 87 171 3.0 6.0 0.00 0.00 0.00 40 1009.9
20260902013056 88 161 5.0 7.0 0.00 0.00 0.00 39 1009.8
20260902011556 90 143 4.0 6.0 0.00 0.00 0.00 38 1009.7
20260902010055 91 170 3.0 7.0 0.00 0.00 0.00 37 1009.6
20260902004554 92 171 4.0 8.0 0.00 0.00 0.00 35 1009.6
20260902003059 94 157 4.0 10.0 0.00 0.00 0.00 33 1009.7
20260902001552 95 161 5.0 11.0 0.00 0.00 0.00 33 1009.7
20260902000051 96 191 5.0 12.0 0.00 0.00 0.00 32 1009.9
20260901234603 96 167 9.0 14.0 0.00 0.00 0.00 30 1009.8
20260901233054 97 201 4.0 11.0 0.00 0.00 0.00 30 1009.8
20260901231547 98 202 8.0 18.0 0.00 0.00 0.00 29 1009.8
20260901230052 98 175 6.0 14.0 0.00 0.00 0.00 30 1009.9
20260901224551 98 179 7.0 16.0 0.00 0.00 0.00 29 1009.8
20260901223053 98 194 9.0 19.0 0.00 0.00 0.00 29 1009.8
20260901221607 99 186 8.0 14.0 0.00 0.00 0.00 29 1009.9
20260901220043 99 165 8.0 18.0 0.00 0.00 0.00 29 1010.1
20260901214541 99 209 9.0 19.0 0.00 0.00 0.00 27 1010.2
20260901213040 99 198 7.0 16.0 0.00 0.00 0.00 28 1010.4
20260901211540 99 158 7.0 19.0 0.00 0.00 0.00 27 1010.5
20260901210038 99 204 4.0 18.0 0.00 0.00 0.00 27 1010.7
20260901204537 99 151 9.0 18.0 0.00 0.00 0.00 27 1010.9
20260901203047 99 190 9.0 18.0 0.00 0.00 0.00 27 1011.0
20260901201543 99 186 6.0 16.0 0.00 0.00 0.00 28 1011.2
20260901200032 99 237 6.0 20.0 0.00 0.00 0.00 28 1011.4
20260901194529 98 181 7.0 21.0 0.00 0.00 0.00 28 1011.5
20260901193025 99 182 8.0 18.0 0.00 0.00 0.00 29 1011.7
20260901191524 98 288 9.0 13.0 0.00 0.00 0.00 31 1012.0
20260901190023 98 290 8.0 22.0 0.00 0.00 0.00 29 1012.1
20260901184521 96 212 12.0 24.0 0.00 0.00 0.00 31 1011.9
20260901183020 97 182 9.0 18.0 0.00 0.00 0.00 31 1012.2